Tracking 31027 objects as of 19-Jul-2025
HD Live streaming from Space Station
objects crossing your sky now

COSMOS 252 DEB

Track COSMOS 252 DEB now!
10-day predictions


NORAD ID: 18490
Int'l Code: 1968-097EN
Perigee: 529.8 km
Apogee: 1,105.2 km
Inclination: 62.7 °
Period: 101.1 minutes
Semi major axis: 7188 km
RCS: 0.002 m2 (small)
Launch date: November 1, 1968
Source: Commonwealth of Independent States (former USSR) (CIS)
Launch site: TYURATAM MISSILE AND SPACE COMPLEX (TTMTR)

Note: This is SATELLITE DEBRIS
Your satellite tracking list
KHAYYAM
Track 1 satellite(s)




NASA's NSSDC Master Catalog

Two Line Element Set (TLE):
1 18490U 68097EN  25199.17128013  .00001406  00000-0  29133-3 0  9993
2 18490  62.7460  89.4796 0400184 293.6306  62.3224 14.24449237664777
Source of the keplerian elements: AFSPC